• En España
  • Lista de países
  • Para 7 días
  • Temperatura del agua
  • Mapa Satelital
  • El tiempo en el mapa
  • Informadores
  • user-avatar
    Iniciar sesión

    Tiempo cada hora Igls

    Hoy, 25 Febrero, Domingo

    Tiempo Temperatura Precipitaciones Viento Presión Humedad
    00:00 -7°C° 0 mm 1 mps 681 mmHg 90%
    01:00 -9°C° 0 mm 2 mps 681 mmHg 88%
    02:00 -9°C° 0 mm 2 mps 681 mmHg 88%
    03:00 -10°C° 0 mm 2 mps 681 mmHg 88%
    04:00 -10°C° 0 mm 1 mps 680 mmHg 88%
    05:00 -10°C° 0 mm 1 mps 680 mmHg 88%
    06:00 -11°C° 0 mm 1 mps 681 mmHg 88%
    07:00 -13°C° 0 mm 2 mps 681 mmHg 95%
    08:00 -12°C° 0 mm 2 mps 681 mmHg 92%
    09:00 -10°C° 0 mm 2 mps 681 mmHg 88%
    10:00 -8°C° 0 mm 2 mps 681 mmHg 85%
    11:00 -7°C° 0 mm 2 mps 681 mmHg 82%
    12:00 -7°C° 0 mm 2 mps 681 mmHg 80%
    13:00 -7°C° 0 mm 3 mps 681 mmHg 77%
    14:00 -8°C° 0 mm 3 mps 681 mmHg 79%
    15:00 -8°C° 0 mm 3 mps 681 mmHg 81%
    16:00 -9°C° 0 mm 3 mps 680 mmHg 84%
    17:00 -9°C° 0 mm 2 mps 680 mmHg 87%
    18:00 -12°C° 0 mm 2 mps 680 mmHg 91%
    19:00 -14°C° 0 mm 2 mps 680 mmHg 94%
    20:00 -13°C° 0 mm 1 mps 680 mmHg 94%
    21:00 -14°C° 0 mm 1 mps 680 mmHg 94%
    22:00 -15°C° 0 mm 1 mps 680 mmHg 93%
    23:00 -16°C° 0 mm 1 mps 680 mmHg 93%

    Mañana, 26 Febrero, Lunes

    Tiempo Temperatura Precipitaciones Viento Presión Humedad
    00:00 -16°C° 0 mm 1 mps 680 mmHg 92%
    01:00 -17°C° 0 mm 1 mps 680 mmHg 92%
    02:00 -17°C° 0 mm 1 mps 680 mmHg 92%
    03:00 -18°C° 0 mm 1 mps 680 mmHg 91%
    04:00 -18°C° 0 mm 1 mps 680 mmHg 91%
    05:00 -18°C° 0 mm 1 mps 680 mmHg 91%
    06:00 -19°C° 0 mm 1 mps 680 mmHg 91%
    07:00 -19°C° 0 mm 1 mps 680 mmHg 91%
    08:00 -19°C° 0 mm 2 mps 680 mmHg 88%
    09:00 -17°C° 0 mm 2 mps 680 mmHg 85%
    10:00 -15°C° 0 mm 2 mps 680 mmHg 82%
    11:00 -14°C° 0 mm 2 mps 680 mmHg 81%
    12:00 -14°C° 0 mm 3 mps 679 mmHg 80%
    13:00 -13°C° 0 mm 3 mps 679 mmHg 79%
    14:00 -14°C° 0,1 mm 3 mps 679 mmHg 81%
    15:00 -14°C° 0,1 mm 3 mps 679 mmHg 82%
    16:00 -14°C° 0,1 mm 3 mps 678 mmHg 84%
    17:00 -14°C° 0,1 mm 2 mps 678 mmHg 87%
    18:00 -16°C° 0,1 mm 2 mps 679 mmHg 90%
    19:00 -17°C° 0,1 mm 2 mps 679 mmHg 93%
    20:00 -16°C° 0,1 mm 1 mps 679 mmHg 94%
    21:00 -16°C° 0,1 mm 1 mps 678 mmHg 94%
    22:00 -17°C° 0,1 mm 1 mps 678 mmHg 94%
    23:00 -17°C° 0 mm 1 mps 678 mmHg 94%

    Pasado mañana, 27 Febrero, Martes

    Tiempo Temperatura Precipitaciones Viento Presión Humedad
    00:00 -18°C° 0 mm 1 mps 678 mmHg 93%
    01:00 -18°C° 0 mm 1 mps 678 mmHg 92%
    02:00 -18°C° 0 mm 1 mps 677 mmHg 92%
    03:00 -19°C° 0 mm 1 mps 677 mmHg 92%
    04:00 -19°C° 0 mm 1 mps 677 mmHg 91%
    05:00 -19°C° 0 mm 1 mps 677 mmHg 91%
    06:00 -19°C° 0 mm 1 mps 677 mmHg 91%
    07:00 -19°C° 0 mm 1 mps 677 mmHg 91%
    08:00 -17°C° 0 mm 1 mps 677 mmHg 88%
    09:00 -15°C° 0 mm 1 mps 677 mmHg 84%
    10:00 -12°C° 0 mm 1 mps 677 mmHg 81%
    11:00 -12°C° 0 mm 1 mps 677 mmHg 78%
    12:00 -11°C° 0 mm 1 mps 677 mmHg 76%
    13:00 -10°C° 0 mm 1 mps 677 mmHg 73%
    14:00 -12°C° 0,1 mm 2 mps 677 mmHg 76%
    15:00 -10°C° 0,1 mm 2 mps 677 mmHg 78%
    16:00 -10°C° 0,1 mm 2 mps 677 mmHg 81%
    17:00 -11°C° 0,1 mm 1 mps 677 mmHg 86%
    18:00 -13°C° 0,1 mm 1 mps 677 mmHg 90%
    19:00 -14°C° 0,1 mm 1 mps 677 mmHg 94%
    20:00 -15°C° 0 mm 1 mps 677 mmHg 94%
    21:00 -16°C° 0 mm 1 mps 677 mmHg 94%
    22:00 -16°C° 0 mm 1 mps 678 mmHg 93%
    23:00 -17°C° 0 mm 1 mps 678 mmHg 92%

    28 Febrero, Miércoles

    Tiempo Temperatura Precipitaciones Viento Presión Humedad
    00:00 -17°C° 0 mm 1 mps 678 mmHg 90%
    01:00 -17°C° 0 mm 1 mps 678 mmHg 88%
    02:00 -17°C° 0 mm 1 mps 678 mmHg 87%
    03:00 -17°C° 0 mm 1 mps 678 mmHg 87%
    04:00 -18°C° 0 mm 1 mps 678 mmHg 86%
    05:00 -18°C° 0 mm 1 mps 678 mmHg 85%
    06:00 -18°C° 0 mm 1 mps 678 mmHg 85%
    07:00 -18°C° 0 mm 1 mps 679 mmHg 84%
    08:00 -15°C° 0 mm 1 mps 679 mmHg 77%
    09:00 -12°C° 0 mm 1 mps 679 mmHg 70%
    10:00 -9°C° 0 mm 1 mps 680 mmHg 63%
    11:00 -8°C° 0 mm 1 mps 680 mmHg 60%
    12:00 -7°C° 0 mm 1 mps 680 mmHg 57%
    13:00 -6°C° 0 mm 1 mps 680 mmHg 54%
    14:00 -4°C° 0 mm 1 mps 680 mmHg 59%
    15:00 -6°C° 0 mm 2 mps 680 mmHg 64%
    16:00 -6°C° 0 mm 2 mps 679 mmHg 70%
    17:00 -8°C° 0 mm 2 mps 679 mmHg 76%
    18:00 -10°C° 0 mm 2 mps 679 mmHg 82%
    19:00 -13°C° 0 mm 2 mps 679 mmHg 89%
    20:00 -13°C° 0 mm 2 mps 680 mmHg 88%
    21:00 -13°C° 0 mm 2 mps 680 mmHg 86%
    22:00 -13°C° 0 mm 2 mps 680 mmHg 85%
    23:00 -13°C° 0 mm 2 mps 680 mmHg 84%

    1 Marzo, Jueves

    Tiempo Temperatura Precipitaciones Viento Presión Humedad
    00:00 -14°C° 0 mm 3 mps 680 mmHg 83%
    01:00 -14°C° 0 mm 3 mps 679 mmHg 82%
    02:00 -14°C° 0 mm 3 mps 679 mmHg 81%
    03:00 -14°C° 0 mm 3 mps 679 mmHg 81%
    04:00 -13°C° 0 mm 3 mps 678 mmHg 81%
    05:00 -13°C° 0 mm 3 mps 678 mmHg 81%
    06:00 -12°C° 0 mm 3 mps 678 mmHg 81%
    07:00 -12°C° 0 mm 3 mps 678 mmHg 81%
    08:00 -9°C° 0 mm 3 mps 678 mmHg 79%
    09:00 -6°C° 0 mm 3 mps 677 mmHg 78%
    10:00 -4°C° 0 mm 3 mps 677 mmHg 76%
    11:00 -2°C° 0 mm 3 mps 677 mmHg 78%
    12:00 0°C° 0 mm 3 mps 677 mmHg 79%
    13:00 +1°C° 0 mm 3 mps 676 mmHg 80%
    14:00 +1°C° 0,1 mm 3 mps 676 mmHg 82%
    15:00 +1°C° 0,1 mm 3 mps 676 mmHg 84%
    16:00 +2°C° 0,1 mm 2 mps 675 mmHg 86%
    17:00 +1°C° 0 mm 2 mps 675 mmHg 88%
    18:00 -1°C° 0 mm 2 mps 675 mmHg 90%
    19:00 -2°C° 0 mm 2 mps 675 mmHg 92%
    20:00 -3°C° 0 mm 2 mps 675 mmHg 91%
    21:00 -4°C° 0 mm 3 mps 675 mmHg 90%
    22:00 -4°C° 0 mm 3 mps 675 mmHg 90%
    23:00 -5°C° 0 mm 3 mps 675 mmHg 89%

    2 Marzo, Viernes

    Tiempo Temperatura Precipitaciones Viento Presión Humedad
    00:00 -5°C° 0 mm 3 mps 674 mmHg 89%
    01:00 -5°C° 0 mm 3 mps 674 mmHg 89%
    02:00 -5°C° 0 mm 3 mps 673 mmHg 89%
    03:00 -5°C° 0 mm 3 mps 673 mmHg 88%
    04:00 -5°C° 0 mm 3 mps 673 mmHg 88%
    05:00 -5°C° 0 mm 3 mps 672 mmHg 88%
    06:00 -5°C° 0 mm 3 mps 672 mmHg 88%
    07:00 -5°C° 0 mm 3 mps 672 mmHg 88%
    08:00 -1°C° 0 mm 3 mps 672 mmHg 87%
    09:00 +1°C° 0 mm 3 mps 672 mmHg 87%
    10:00 +3°C° 0 mm 3 mps 672 mmHg 86%
    11:00 +5°C° 0 mm 2 mps 672 mmHg 87%
    12:00 +6°C° 0 mm 2 mps 671 mmHg 89%
    13:00 +7°C° 0 mm 2 mps 671 mmHg 90%
    14:00 +6°C° 0 mm 2 mps 671 mmHg 90%
    15:00 +6°C° 0 mm 2 mps 671 mmHg 91%
    16:00 +7°C° 0 mm 1 mps 671 mmHg 92%
    17:00 +6°C° 0,1 mm 1 mps 672 mmHg 93%
    18:00 +5°C° 0,1 mm 1 mps 672 mmHg 94%
    19:00 +3°C° 0,1 mm 0 mps 672 mmHg 95%
    20:00 +3°C° 0,3 mm 0 mps 673 mmHg 95%
    21:00 +4°C° 0,3 mm 1 mps 673 mmHg 95%
    22:00 +4°C° 0,3 mm 1 mps 674 mmHg 95%
    23:00 +3°C° 0,3 mm 1 mps 673 mmHg 95%
    Mostrar más